Zurück zum Katalog

STARLINK-4191

AktivKommunikationVLEO
NORAD 52860·PAYLOAD·🇺🇸 United States

Gestartet Jun 17, 2022 von Cape Canaveral Space Force Station

Loading…

Nächste Überflüge (nächste 24 Stunden)

TLE

AktuellSource: CelesTrak SupGP

Epoche: Sep 14, 2026, 21:56 UTC

1 52860C 22062AG  26257.91437500  .00005033  00000+0  14402-3 0  2575
2 52860  53.1576 243.5687 0001277  97.6981 132.1371 15.35393466    16

Verfolge STARLINK-4191 in Echtzeit mit AllMySat

Download on the App Store